Time,TemperatureF,DewpointF,PressureIn,WindDirection,WindDirectionDegrees,WindSpeedMPH,WindSpeedGustMPH,Humidity,HourlyPrecipIn,Conditions,Clouds,dailyrainin,SoftwareType,DateUTC
2013-03-07 00:02:00,32.0,19.0,30.07,ESE,112,2.0,5.0,59,0.00,,,0.04,,2013-03-07 05:02:00,
2013-03-07 00:12:00,32.0,19.0,30.07,ESE,112,2.0,5.0,59,0.00,,,0.04,,2013-03-07 05:12:00,
2013-03-07 00:22:00,32.0,20.0,30.07,East,94,2.0,5.0,60,0.00,,,0.04,,2013-03-07 05:22:00,
2013-03-07 00:32:00,32.0,19.0,30.08,ESE,122,3.0,5.0,59,0.00,,,0.04,,2013-03-07 05:32:00,
2013-03-07 00:42:00,32.0,19.0,30.08,ESE,122,3.0,5.0,59,0.00,,,0.04,,2013-03-07 05:42:00,
2013-03-07 00:52:00,32.0,19.0,30.08,ENE,69,4.0,8.0,59,0.00,,,0.04,,2013-03-07 05:52:00,
2013-03-07 01:01:00,32.0,20.0,30.08,NE,54,2.0,3.0,60,0.00,,,0.04,,2013-03-07 06:01:00,
2013-03-07 01:11:00,32.0,20.0,30.08,NE,54,2.0,3.0,60,0.00,,,0.04,,2013-03-07 06:11:00,
2013-03-07 01:21:00,32.0,20.0,30.09,ENE,62,2.0,3.0,60,0.00,,,0.04,,2013-03-07 06:21:00,
2013-03-07 01:32:00,32.0,20.0,30.09,ENE,58,3.0,5.0,60,0.00,,,0.04,,2013-03-07 06:32:00,
2013-03-07 01:42:00,31.0,19.0,30.08,ENE,67,2.0,6.0,61,0.00,,,0.04,,2013-03-07 06:42:00,
2013-03-07 01:52:00,31.0,19.0,30.08,ENE,67,2.0,6.0,61,0.00,,,0.04,,2013-03-07 06:52:00,
2013-03-07 02:01:00,31.0,19.0,30.09,SE,125,3.0,9.0,61,0.00,,,0.04,,2013-03-07 07:01:00,
2013-03-07 02:11:00,31.0,19.0,30.09,SE,125,3.0,9.0,61,0.00,,,0.04,,2013-03-07 07:11:00,
2013-03-07 02:22:00,31.0,19.0,30.09,SSE,148,3.0,7.0,61,0.00,,,0.04,,2013-03-07 07:22:00,
2013-03-07 02:32:00,31.0,19.0,30.08,SE,128,1.0,5.0,61,0.00,,,0.04,,2013-03-07 07:32:00,
2013-03-07 02:53:00,31.0,20.0,30.08,SE,135,2.0,6.0,62,0.00,,,0.04,,2013-03-07 07:53:00,
2013-03-07 03:03:00,31.0,20.0,30.08,ESE,112,4.0,7.0,62,0.00,,,0.04,,2013-03-07 08:03:00,
2013-03-07 03:12:00,31.0,20.0,30.08,ESE,112,4.0,7.0,62,0.00,,,0.04,,2013-03-07 08:12:00,
2013-03-07 03:23:00,31.0,20.0,30.08,SE,137,4.0,6.0,62,0.00,,,0.04,,2013-03-07 08:23:00,
2013-03-07 03:33:00,31.0,19.0,30.09,NE,56,4.0,9.0,61,0.00,,,0.04,,2013-03-07 08:33:00,
2013-03-07 03:44:00,31.0,19.0,30.09,NE,56,4.0,9.0,61,0.00,,,0.04,,2013-03-07 08:44:00,
2013-03-07 03:54:00,31.0,19.0,30.09,ENE,67,0.0,7.0,61,0.00,,,0.04,,2013-03-07 08:54:00,
2013-03-07 04:03:00,31.0,19.0,30.09,SE,135,2.0,6.0,61,0.00,,,0.04,,2013-03-07 09:03:00,
2013-03-07 04:13:00,31.0,19.0,30.09,SE,135,2.0,6.0,61,0.00,,,0.04,,2013-03-07 09:13:00,
2013-03-07 04:23:00,31.0,19.0,30.10,NNW,337,0.0,5.0,61,0.00,,,0.04,,2013-03-07 09:23:00,
2013-03-07 04:33:00,30.0,19.0,30.09,SSE,157,2.0,6.0,62,0.00,,,0.04,,2013-03-07 09:33:00,
2013-03-07 04:43:00,30.0,19.0,30.09,SSE,157,2.0,6.0,62,0.00,,,0.04,,2013-03-07 09:43:00,
2013-03-07 04:53:00,30.0,18.0,30.09,NE,45,0.0,5.0,61,0.00,,,0.04,,2013-03-07 09:53:00,
2013-03-07 05:03:00,30.0,18.0,30.09,SSE,147,2.0,3.0,61,0.00,,,0.04,,2013-03-07 10:03:00,
2013-03-07 05:13:00,30.0,18.0,30.09,SSE,147,2.0,3.0,61,0.00,,,0.04,,2013-03-07 10:13:00,
2013-03-07 05:23:00,30.0,19.0,30.09,SE,135,0.0,0.0,62,0.00,,,0.04,,2013-03-07 10:23:00,
2013-03-07 05:33:00,30.0,19.0,30.09,NE,45,0.0,0.0,62,0.00,,,0.04,,2013-03-07 10:33:00,
2013-03-07 05:42:00,30.0,19.0,30.09,NE,45,0.0,0.0,62,0.00,,,0.04,,2013-03-07 10:42:00,
2013-03-07 05:53:00,30.0,19.0,30.09,NE,45,0.0,0.0,62,0.00,,,0.04,,2013-03-07 10:53:00,
2013-03-07 06:03:00,30.0,19.0,30.09,NNE,22,0.0,0.0,62,0.00,,,0.04,,2013-03-07 11:03:00,
2013-03-07 06:12:00,30.0,19.0,30.09,NNE,22,0.0,0.0,62,0.00,,,0.04,,2013-03-07 11:12:00,
2013-03-07 06:23:00,30.0,19.0,30.08,ENE,67,0.0,3.0,62,0.00,,,0.04,,2013-03-07 11:23:00,
2013-03-07 06:33:00,30.0,19.0,30.08,North,0,1.0,2.0,62,0.00,,,0.04,,2013-03-07 11:33:00,
2013-03-07 06:43:00,30.0,19.0,30.08,North,0,1.0,2.0,62,0.00,,,0.04,,2013-03-07 11:43:00,
2013-03-07 06:54:00,30.0,19.0,30.07,NE,56,1.0,3.0,62,0.00,,,0.04,,2013-03-07 11:54:00,
2013-03-07 07:03:00,30.0,19.0,30.08,NNE,22,2.0,4.0,63,0.00,,,0.04,,2013-03-07 12:03:00,
2013-03-07 07:12:00,30.0,19.0,30.08,NNE,22,2.0,4.0,63,0.00,,,0.04,,2013-03-07 12:12:00,
2013-03-07 07:23:00,30.0,19.0,30.08,NE,34,2.0,3.0,63,0.00,,,0.04,,2013-03-07 12:23:00,
2013-03-07 07:33:00,30.0,19.0,30.09,NNE,22,0.0,4.0,63,0.00,,,0.04,,2013-03-07 12:33:00,
2013-03-07 07:43:00,30.0,19.0,30.09,NNE,22,0.0,4.0,63,0.00,,,0.04,,2013-03-07 12:43:00,
2013-03-07 07:53:00,31.0,20.0,30.09,NE,45,0.0,0.0,62,0.00,,,0.04,,2013-03-07 12:53:00,
2013-03-07 08:03:00,32.0,20.0,30.09,NNE,28,3.0,5.0,61,0.00,,,0.04,,2013-03-07 13:03:00,
2013-03-07 08:12:00,32.0,20.0,30.09,NNE,28,3.0,5.0,61,0.00,,,0.04,,2013-03-07 13:12:00,
2013-03-07 08:23:00,32.0,20.0,30.10,NNE,22,1.0,3.0,60,0.00,,,0.04,,2013-03-07 13:23:00,
2013-03-07 08:32:00,32.0,19.0,30.11,ENE,64,3.0,5.0,59,0.00,,,0.04,,2013-03-07 13:32:00,
2013-03-07 08:42:00,32.0,19.0,30.11,ENE,64,3.0,5.0,59,0.00,,,0.04,,2013-03-07 13:42:00,
2013-03-07 08:53:00,33.0,20.0,30.11,ENE,76,3.0,4.0,59,0.00,,,0.04,,2013-03-07 13:53:00,
2013-03-07 09:02:00,33.0,19.0,30.11,ENE,67,1.0,5.0,57,0.00,,,0.04,,2013-03-07 14:02:00,
2013-03-07 09:12:00,33.0,19.0,30.11,ENE,67,1.0,5.0,57,0.00,,,0.04,,2013-03-07 14:12:00,
2013-03-07 09:23:00,34.0,20.0,30.11,ENE,71,3.0,7.0,56,0.00,,,0.04,,2013-03-07 14:23:00,
2013-03-07 09:33:00,35.0,21.0,30.12,SE,135,0.0,5.0,56,0.00,,,0.04,,2013-03-07 14:33:00,
2013-03-07 09:42:00,35.0,21.0,30.12,SE,135,0.0,5.0,56,0.00,,,0.04,,2013-03-07 14:42:00,
2013-03-07 09:54:00,36.0,21.0,30.12,ENE,69,4.0,5.0,54,0.00,,,0.04,,2013-03-07 14:54:00,
2013-03-07 10:03:00,36.0,20.0,30.12,ENE,72,3.0,6.0,52,0.00,,,0.04,,2013-03-07 15:03:00,
2013-03-07 10:12:00,36.0,20.0,30.12,ENE,72,3.0,6.0,52,0.00,,,0.04,,2013-03-07 15:12:00,
2013-03-07 10:23:00,37.0,21.0,30.12,ENE,58,2.0,5.0,51,0.00,,,0.04,,2013-03-07 15:23:00,
2013-03-07 10:32:00,38.0,21.0,30.12,NE,49,5.0,6.0,49,0.00,,,0.02,,2013-03-07 15:32:00,
2013-03-07 10:42:00,38.0,21.0,30.12,NE,49,5.0,6.0,49,0.00,,,0.02,,2013-03-07 15:42:00,
2013-03-07 10:53:00,38.0,21.0,30.13,NE,47,3.0,6.0,49,0.00,,,0.02,,2013-03-07 15:53:00,
2013-03-07 11:02:00,39.0,20.0,30.13,ENE,67,2.0,7.0,47,0.00,,,0.02,,2013-03-07 16:02:00,
2013-03-07 11:13:00,39.0,20.0,30.13,ENE,67,2.0,7.0,47,0.00,,,0.02,,2013-03-07 16:13:00,
2013-03-07 11:23:00,39.0,20.0,30.13,NNE,26,3.0,7.0,47,0.00,,,0.02,,2013-03-07 16:23:00,
2013-03-07 11:33:00,40.0,21.0,30.13,North,2,4.0,6.0,46,0.00,,,0.02,,2013-03-07 16:33:00,
2013-03-07 11:43:00,40.0,21.0,30.13,North,2,4.0,6.0,46,0.00,,,0.02,,2013-03-07 16:43:00,
2013-03-07 11:53:00,41.0,21.0,30.14,NNW,345,4.0,6.0,45,0.00,,,0.02,,2013-03-07 16:53:00,
2013-03-07 12:02:00,42.0,22.0,30.14,NNW,334,3.0,8.0,44,0.00,,,0.02,,2013-03-07 17:02:00,
2013-03-07 12:12:00,42.0,22.0,30.14,NNW,334,3.0,8.0,44,0.00,,,0.02,,2013-03-07 17:12:00,
2013-03-07 12:22:00,42.0,22.0,30.14,North,359,5.0,7.0,44,0.00,,,0.02,,2013-03-07 17:22:00,
2013-03-07 12:33:00,41.0,20.0,30.13,NNE,17,5.0,9.0,43,0.00,,,0.02,,2013-03-07 17:33:00,
2013-03-07 12:43:00,41.0,20.0,30.13,NNE,17,5.0,9.0,43,0.00,,,0.02,,2013-03-07 17:43:00,
2013-03-07 12:54:00,41.0,21.0,30.12,North,8,4.0,7.0,44,0.00,,,0.02,,2013-03-07 17:54:00,
2013-03-07 13:03:00,41.0,21.0,30.12,North,1,2.0,5.0,45,0.00,,,0.00,,2013-03-07 18:03:00,
2013-03-07 13:12:00,41.0,21.0,30.12,North,1,2.0,5.0,45,0.00,,,0.00,,2013-03-07 18:12:00,
2013-03-07 13:22:00,41.0,21.0,30.12,NNW,340,4.0,6.0,45,0.00,,,0.00,,2013-03-07 18:22:00,
2013-03-07 13:32:00,41.0,21.0,30.11,NNW,330,5.0,7.0,45,0.00,,,0.00,,2013-03-07 18:32:00,
2013-03-07 13:42:00,41.0,21.0,30.11,NNW,330,5.0,7.0,45,0.00,,,0.00,,2013-03-07 18:42:00,
2013-03-07 13:53:00,39.0,20.0,30.11,NNW,341,5.0,10.0,47,0.00,,,0.00,,2013-03-07 18:53:00,
2013-03-07 14:03:00,38.0,20.0,30.11,North,1,5.0,8.0,48,0.00,,,0.00,,2013-03-07 19:03:00,
2013-03-07 14:12:00,37.0,20.0,30.11,NNW,332,3.0,8.0,50,0.00,,,0.00,,2013-03-07 19:12:00,
2013-03-07 14:23:00,37.0,20.0,30.11,NNW,332,3.0,8.0,50,0.00,,,0.00,,2013-03-07 19:23:00,
2013-03-07 14:35:00,37.0,21.0,30.11,NNW,348,3.0,6.0,51,0.00,,,0.00,,2013-03-07 19:35:00,
2013-03-07 14:43:00,37.0,21.0,30.11,NNW,348,3.0,6.0,51,0.00,,,0.00,,2013-03-07 19:43:00,
2013-03-07 14:53:00,38.0,21.0,30.11,NNE,14,5.0,8.0,49,0.00,,,0.00,,2013-03-07 19:53:00,
2013-03-07 15:02:00,39.0,20.0,30.11,North,350,5.0,11.0,47,0.00,,,0.00,,2013-03-07 20:02:00,
2013-03-07 15:13:00,39.0,20.0,30.11,North,350,5.0,11.0,47,0.00,,,0.00,,2013-03-07 20:13:00,
2013-03-07 15:22:00,39.0,20.0,30.12,NNW,332,5.0,10.0,47,0.00,,,0.00,,2013-03-07 20:22:00,
2013-03-07 15:33:00,39.0,20.0,30.12,North,352,6.0,11.0,46,0.00,,,0.00,,2013-03-07 20:33:00,
2013-03-07 15:43:00,39.0,20.0,30.12,North,352,6.0,11.0,46,0.00,,,0.00,,2013-03-07 20:43:00,
2013-03-07 15:54:00,37.0,19.0,30.12,NNE,24,4.0,9.0,48,0.00,,,0.00,,2013-03-07 20:54:00,
2013-03-07 16:03:00,37.0,19.0,30.12,North,354,5.0,11.0,48,0.00,,,0.00,,2013-03-07 21:03:00,
2013-03-07 16:12:00,37.0,19.0,30.12,North,354,5.0,11.0,48,0.00,,,0.00,,2013-03-07 21:12:00,
2013-03-07 16:22:00,36.0,18.0,30.11,North,355,5.0,11.0,48,0.00,,,0.00,,2013-03-07 21:22:00,
2013-03-07 16:33:00,36.0,19.0,30.12,North,11,5.0,12.0,49,0.00,,,0.00,,2013-03-07 21:33:00,
2013-03-07 16:43:00,36.0,19.0,30.12,North,11,5.0,12.0,49,0.00,,,0.00,,2013-03-07 21:43:00,
2013-03-07 16:53:00,35.0,18.0,30.12,North,351,5.0,9.0,50,0.00,,,0.00,,2013-03-07 21:53:00,
2013-03-07 17:02:00,34.0,18.0,30.13,North,2,5.0,9.0,51,0.00,,,0.00,,2013-03-07 22:02:00,
2013-03-07 17:12:00,34.0,18.0,30.13,North,2,5.0,9.0,51,0.00,,,0.00,,2013-03-07 22:12:00,
2013-03-07 17:22:00,34.0,18.0,30.13,North,3,6.0,12.0,52,0.00,,,0.00,,2013-03-07 22:22:00,
2013-03-07 17:32:00,33.0,17.0,30.14,North,350,4.0,10.0,52,0.00,,,0.00,,2013-03-07 22:32:00,
2013-03-07 17:42:00,33.0,17.0,30.14,North,350,4.0,10.0,52,0.00,,,0.00,,2013-03-07 22:42:00,
2013-03-07 17:54:00,33.0,18.0,30.15,North,358,4.0,8.0,53,0.00,,,0.00,,2013-03-07 22:54:00,
2013-03-07 18:03:00,32.0,17.0,30.15,North,357,4.0,8.0,54,0.00,,,0.00,,2013-03-07 23:03:00,
2013-03-07 18:13:00,32.0,17.0,30.15,North,357,4.0,8.0,54,0.00,,,0.00,,2013-03-07 23:13:00,
2013-03-07 18:22:00,31.0,16.0,30.15,North,5,4.0,9.0,54,0.00,,,0.00,,2013-03-07 23:22:00,
2013-03-07 18:43:00,30.0,16.0,30.16,NNE,15,4.0,9.0,56,0.00,,,0.00,,2013-03-07 23:43:00,
2013-03-07 18:54:00,29.0,16.0,30.15,North,358,4.0,7.0,57,0.00,,,0.00,,2013-03-07 23:54:00,
2013-03-07 19:13:00,29.0,16.0,30.16,NNW,346,4.0,9.0,58,0.00,,,0.00,,2013-03-08 00:13:00,
2013-03-07 19:23:00,29.0,16.0,30.16,North,357,4.0,6.0,59,0.00,,,0.00,,2013-03-08 00:23:00,
2013-03-07 19:34:00,28.0,16.0,30.15,North,354,4.0,6.0,60,0.00,,,0.00,,2013-03-08 00:34:00,
2013-03-07 19:43:00,28.0,16.0,30.15,North,354,4.0,6.0,60,0.00,,,0.00,,2013-03-08 00:43:00,
2013-03-07 19:54:00,28.0,16.0,30.16,NNW,337,2.0,5.0,61,0.00,,,0.00,,2013-03-08 00:54:00,
2013-03-07 20:02:00,28.0,17.0,30.16,NNE,16,3.0,7.0,62,0.00,,,0.00,,2013-03-08 01:02:00,
2013-03-07 20:11:00,28.0,17.0,30.16,NNE,16,3.0,7.0,62,0.00,,,0.00,,2013-03-08 01:11:00,
2013-03-07 20:22:00,28.0,17.0,30.16,North,350,5.0,7.0,63,0.00,,,0.00,,2013-03-08 01:22:00,
2013-03-07 20:33:00,28.0,17.0,30.16,North,358,2.0,6.0,63,0.00,,,0.00,,2013-03-08 01:33:00,
2013-03-07 20:42:00,28.0,17.0,30.16,North,358,2.0,6.0,63,0.00,,,0.00,,2013-03-08 01:42:00,
2013-03-07 20:52:00,27.0,16.0,30.16,North,354,4.0,6.0,64,0.00,,,0.00,,2013-03-08 01:52:00,
2013-03-07 21:01:00,27.0,17.0,30.16,North,359,4.0,7.0,65,0.00,,,0.00,,2013-03-08 02:01:00,
2013-03-07 21:12:00,27.0,17.0,30.16,NNW,343,4.0,6.0,65,0.00,,,0.00,,2013-03-08 02:12:00,
2013-03-07 21:22:00,27.0,17.0,30.16,NNW,343,4.0,6.0,65,0.00,,,0.00,,2013-03-08 02:22:00,
2013-03-07 21:32:00,27.0,17.0,30.16,NNW,341,5.0,7.0,65,0.00,,,0.00,,2013-03-08 02:32:00,
2013-03-07 21:42:00,27.0,17.0,30.16,NNW,341,5.0,7.0,65,0.00,,,0.00,,2013-03-08 02:42:00,
2013-03-07 21:53:00,27.0,17.0,30.16,North,5,3.0,7.0,66,0.00,,,0.00,,2013-03-08 02:53:00,
2013-03-07 22:02:00,27.0,18.0,30.15,NNW,344,2.0,7.0,67,0.00,,,0.00,,2013-03-08 03:02:00,
2013-03-07 22:12:00,27.0,18.0,30.15,NNW,344,2.0,7.0,67,0.00,,,0.00,,2013-03-08 03:12:00,
2013-03-07 22:22:00,27.0,18.0,30.15,NNW,344,4.0,8.0,68,0.00,,,0.00,,2013-03-08 03:22:00,
2013-03-07 22:32:00,26.0,17.0,30.15,NNW,344,3.0,8.0,69,0.00,,,0.00,,2013-03-08 03:32:00,
2013-03-07 22:43:00,26.0,17.0,30.15,NNW,344,3.0,8.0,69,0.00,,,0.00,,2013-03-08 03:43:00,
2013-03-07 22:53:00,26.0,18.0,30.15,NNW,348,4.0,7.0,71,0.00,,,0.00,,2013-03-08 03:53:00,
2013-03-07 23:02:00,26.0,18.0,30.14,North,354,4.0,7.0,72,0.00,,,0.00,,2013-03-08 04:02:00,
2013-03-07 23:11:00,26.0,19.0,30.14,NNW,333,6.0,7.0,73,0.00,,,0.00,,2013-03-08 04:11:00,
2013-03-07 23:22:00,26.0,19.0,30.14,NNW,333,6.0,7.0,73,0.00,,,0.00,,2013-03-08 04:22:00,
2013-03-07 23:32:00,26.0,19.0,30.14,North,0,3.0,6.0,74,0.00,,,0.00,,2013-03-08 04:32:00,
2013-03-07 23:42:00,26.0,19.0,30.14,North,0,3.0,6.0,74,0.00,,,0.00,,2013-03-08 04:42:00,
2013-03-07 23:52:00,25.0,18.0,30.14,NNE,13,5.0,9.0,75,0.00,,,0.00,,2013-03-08 04:52:00,